This demonstration page uses our WeatherBlox Daily Observations layout. Learn more.

Left ArrowRight Arrow

Hourly Observations for November 13, 2019

Temp ( °F °C ) Dew Point ( °F °C ) Humidity (%) Winds ( mph kmh ) Pressure ( in mb ) Visibility ( mi km ) Precip ( " mm )
12:53 am 00:53 Clear 48 8.9 39 3.9 71 71 NNE 3 6 29.99 1016 10 16 0.00 0.00
1:53 am 01:53 Clear 47 8.3 41 5 80 80 Calm 29.98 1015 10 16 0.00 0.00
2:53 am 02:53 Clear 47 8.3 39 3.9 74 74 Calm 29.98 1015 10 16 0.00 0.00
3:53 am 03:53 Clear 48 8.9 39 3.9 71 71 Calm 29.98 1015 10 16 0.00 0.00
4:53 am 04:53 Clear 46 7.8 39 3.9 77 77 Calm 29.98 1015 10 16 0.00 0.00
5:53 am 05:53 Clear 45 7.2 38 3.3 77 77 Calm 29.98 1015 10 16 0.00 0.00
6:53 am 06:53 Clear 44 6.7 38 3.3 79 79 Calm 29.99 1016 10 16 0.00 0.00
7:53 am 07:53 Mostly Sunny 48 8.9 40 4.4 74 74 Calm 30.01 1016 10 16 0.00 0.00
8:53 am 08:53 Sunny 52 11.1 41 5 66 66 Calm 30.01 1016 10 16 0.00 0.00
9:53 am 09:53 Sunny 61 16.1 42 5.6 50 50 Calm 30.01 1016 10 16 0.00 0.00
10:53 am 10:53 Sunny 67 19.4 42 5.6 41 41 Calm 30.00 1016 10 16 0.00 0.00
11:53 am 11:53 Sunny 70 21.1 39 3.9 32 32 Calm 29.98 1015 10 16 0.00 0.00
12:53 pm 12:53 Sunny 72 22.2 38 3.3 29 29 Calm 29.96 1014 10 16 0.00 0.00
1:53 pm 13:53 Sunny 74 23.3 40 4.4 29 29 NNE 3 6 29.94 1014 10 16 0.00 0.00
2:53 pm 14:53 Sunny 74 23.3 38 3.3 27 27 ESE 3 6 29.93 1013 10 16 0.00 0.00
3:53 pm 15:53 Sunny 71 21.7 39 3.9 31 31 S 3 6 29.93 1014 10 16 0.00 0.00
4:53 pm 16:53 Sunny 67 19.4 41 5 39 39 Calm 29.93 1013 10 16 0.00 0.00
5:53 pm 17:53 Clear 63 17.2 41 5 45 45 Calm 29.93 1014 10 16 0.00 0.00
6:53 pm 18:53 Clear 60 15.6 39 3.9 46 46 Calm 29.94 1014 10 16 0.00 0.00
7:53 pm 19:53 Clear 58 14.4 41 5 53 53 Calm 29.94 1014 10 16 0.00 0.00
8:53 pm 20:53 Clear 55 12.8 40 4.4 57 57 Calm 29.95 1014 10 16 0.00 0.00
9:53 pm 21:53 Clear 54 12.2 39 3.9 57 57 Calm 29.95 1014 10 16 0.00 0.00
10:53 pm 22:53 Clear 53 11.7 40 4.4 61 61 Calm 29.96 1014 9 14 0.00 0.00
11:53 pm 23:53 Clear 53 11.7 40 4.4 61 61 Calm 29.96 1015 10 16 0.00 0.00

Powered by AerisWeather